STARLINK-4629 (53968 NORAD) Tracking and Keplerian Element Data

This shows tracking and keplerian element data for the satellite.

Feedback or suggestion? Click here.




ElementValue
Catalog53968
NameSTARLINK-4629
Epoch Orbit130
Epoch Day324.91667824
Epoch Year2022
RAAN232.4733
Inclination53.215
Eccentricity0.0001481
Argument of Perigee63.4424
Mean Anonmoly290.9719
Mean Motion15.08859787
Decay Rate-0.00038574
L11 53968U 22125E 22324.91667824 -.00038574 00000+0 -24173-2 0 9996
L22 53968 53.2150 232.4733 0001481 63.4424 290.9719 15.08859787 1309



Live tracking and technical data element details for STARLINK-4629 (NORAD 53968). STARLINK-4629 can be tracked NOW for your location showing map with azimuth and elevation plus other details from your city location.







IsCatalogInMostPopularTable: catalog: 53968, numindb: 5
Update: records affected: 1



GetName: 53968 STARLINK-4629

Hit Count: updated at: Mon, 28 Nov 2022 22:56:54 GMT